• Em Portugal
  • Lista de países
  • Para 7 dias
  • Temperatura da água
  • Mapas de satélite
  • Mapa do tempo
  • Widgets de tempo
  • user-avatar
    Iniciar Sessão

    Previsão horária em Porto-Novo

    Hoje, 22 Outubro, Segunda-feira

    Tempo Temperatura Precipitação Vento Pressão Humidade
    00:00 +29°C° 0 mm 2 m/s 756 mmHg 82%
    01:00 +28°C° 0.2 mm 2 m/s 756 mmHg 83%
    02:00 +28°C° 0.2 mm 2 m/s 756 mmHg 84%
    03:00 +28°C° 0.2 mm 2 m/s 755 mmHg 84%
    04:00 +28°C° 0 mm 2 m/s 755 mmHg 84%
    05:00 +28°C° 0 mm 2 m/s 756 mmHg 84%
    06:00 +28°C° 0 mm 1 m/s 756 mmHg 84%
    07:00 +30°C° 0.3 mm 1 m/s 756 mmHg 76%
    08:00 +32°C° 0.3 mm 1 m/s 756 mmHg 67%
    09:00 +34°C° 0.3 mm 1 m/s 757 mmHg 58%
    10:00 +36°C° 0 mm 2 m/s 756 mmHg 54%
    11:00 +37°C° 0 mm 2 m/s 756 mmHg 50%
    12:00 +39°C° 0 mm 2 m/s 756 mmHg 46%
    13:00 +38°C° 0 mm 3 m/s 755 mmHg 48%
    14:00 +37°C° 0 mm 3 m/s 755 mmHg 51%
    15:00 +36°C° 0 mm 4 m/s 754 mmHg 54%
    16:00 +35°C° 0.3 mm 4 m/s 755 mmHg 61%
    17:00 +33°C° 0.3 mm 4 m/s 755 mmHg 68%
    18:00 +30°C° 0.3 mm 4 m/s 756 mmHg 75%
    19:00 +30°C° 0.2 mm 4 m/s 756 mmHg 76%
    20:00 +30°C° 0.2 mm 4 m/s 757 mmHg 77%
    21:00 +30°C° 0.2 mm 4 m/s 758 mmHg 78%
    22:00 +30°C° 0 mm 4 m/s 758 mmHg 79%
    23:00 +29°C° 0 mm 4 m/s 757 mmHg 80%

    Amanhã, 23 Outubro, Terça-feira

    Tempo Temperatura Precipitação Vento Pressão Humidade
    00:00 +29°C° 0 mm 4 m/s 757 mmHg 80%
    01:00 +29°C° 0 mm 4 m/s 757 mmHg 81%
    02:00 +29°C° 0 mm 4 m/s 756 mmHg 82%
    03:00 +29°C° 0 mm 4 m/s 756 mmHg 83%
    04:00 +29°C° 0 mm 3 m/s 756 mmHg 84%
    05:00 +28°C° 0 mm 3 m/s 756 mmHg 84%
    06:00 +28°C° 0 mm 3 m/s 757 mmHg 85%
    07:00 +30°C° 0 mm 3 m/s 757 mmHg 78%
    08:00 +33°C° 0 mm 3 m/s 757 mmHg 71%
    09:00 +34°C° 0 mm 3 m/s 758 mmHg 63%
    10:00 +36°C° 0 mm 3 m/s 757 mmHg 59%
    11:00 +37°C° 0 mm 3 m/s 757 mmHg 55%
    12:00 +38°C° 0 mm 4 m/s 757 mmHg 51%
    13:00 +37°C° 0 mm 4 m/s 756 mmHg 54%
    14:00 +36°C° 0 mm 4 m/s 755 mmHg 57%
    15:00 +36°C° 0 mm 4 m/s 755 mmHg 59%
    16:00 +34°C° 0.1 mm 4 m/s 755 mmHg 66%
    17:00 +33°C° 0.1 mm 4 m/s 756 mmHg 72%
    18:00 +30°C° 0.1 mm 4 m/s 756 mmHg 79%
    19:00 +30°C° 0.1 mm 4 m/s 756 mmHg 80%
    20:00 +30°C° 0.1 mm 4 m/s 757 mmHg 81%
    21:00 +30°C° 0.1 mm 4 m/s 758 mmHg 82%
    22:00 +29°C° 0.2 mm 4 m/s 757 mmHg 82%
    23:00 +29°C° 0.2 mm 4 m/s 757 mmHg 82%

    Depois de amanhã, 24 Outubro, Quarta-feira

    Tempo Temperatura Precipitação Vento Pressão Humidade
    00:00 +29°C° 0.2 mm 4 m/s 757 mmHg 83%
    01:00 +29°C° 0.3 mm 4 m/s 757 mmHg 84%
    02:00 +29°C° 0.3 mm 4 m/s 756 mmHg 85%
    03:00 +28°C° 0.3 mm 4 m/s 756 mmHg 87%
    04:00 +28°C° 0 mm 4 m/s 756 mmHg 87%
    05:00 +28°C° 0 mm 3 m/s 756 mmHg 88%
    06:00 +28°C° 0 mm 3 m/s 757 mmHg 89%
    07:00 +30°C° 0 mm 3 m/s 757 mmHg 83%
    08:00 +31°C° 0 mm 3 m/s 757 mmHg 77%
    09:00 +33°C° 0 mm 4 m/s 758 mmHg 71%
    10:00 +34°C° 0.1 mm 4 m/s 757 mmHg 68%
    11:00 +34°C° 0.1 mm 4 m/s 757 mmHg 65%
    12:00 +35°C° 0.1 mm 4 m/s 757 mmHg 62%
    13:00 +35°C° 0.7 mm 4 m/s 756 mmHg 64%
    14:00 +34°C° 0.7 mm 4 m/s 756 mmHg 66%
    15:00 +34°C° 0.7 mm 4 m/s 755 mmHg 67%
    16:00 +33°C° 0 mm 4 m/s 756 mmHg 72%
    17:00 +32°C° 0 mm 4 m/s 756 mmHg 76%
    18:00 +30°C° 0 mm 4 m/s 756 mmHg 81%
    19:00 +29°C° 0 mm 3 m/s 757 mmHg 82%
    20:00 +29°C° 0 mm 3 m/s 757 mmHg 82%
    21:00 +29°C° 0 mm 3 m/s 758 mmHg 83%
    22:00 +29°C° 0 mm 3 m/s 758 mmHg 84%
    23:00 +29°C° 0 mm 3 m/s 757 mmHg 84%

    25 Outubro, Quinta-feira

    Tempo Temperatura Precipitação Vento Pressão Humidade
    00:00 +28°C° 0 mm 3 m/s 757 mmHg 85%
    01:00 +28°C° 0 mm 2 m/s 757 mmHg 85%
    02:00 +28°C° 0 mm 2 m/s 756 mmHg 86%
    03:00 +28°C° 0 mm 2 m/s 756 mmHg 86%
    04:00 +28°C° 0 mm 2 m/s 756 mmHg 86%
    05:00 +28°C° 0 mm 2 m/s 756 mmHg 86%
    06:00 +28°C° 0 mm 2 m/s 757 mmHg 86%
    07:00 +30°C° 0 mm 2 m/s 757 mmHg 79%
    08:00 +31°C° 0 mm 2 m/s 757 mmHg 71%
    09:00 +34°C° 0 mm 3 m/s 758 mmHg 64%
    10:00 +34°C° 0 mm 3 m/s 757 mmHg 62%
    11:00 +35°C° 0 mm 3 m/s 757 mmHg 59%
    12:00 +36°C° 0 mm 3 m/s 756 mmHg 57%
    13:00 +35°C° 0.1 mm 3 m/s 756 mmHg 57%
    14:00 +35°C° 0.1 mm 3 m/s 755 mmHg 58%
    15:00 +35°C° 0.1 mm 3 m/s 755 mmHg 59%
    16:00 +34°C° 0 mm 3 m/s 755 mmHg 64%
    17:00 +31°C° 0 mm 3 m/s 755 mmHg 69%
    18:00 +30°C° 0 mm 2 m/s 756 mmHg 74%
    19:00 +30°C° 0 mm 2 m/s 756 mmHg 76%
    20:00 +29°C° 0 mm 2 m/s 757 mmHg 77%
    21:00 +29°C° 0 mm 2 m/s 757 mmHg 79%
    22:00 +29°C° 0 mm 2 m/s 757 mmHg 80%
    23:00 +29°C° 0 mm 2 m/s 757 mmHg 81%

    26 Outubro, Sexta-feira

    Tempo Temperatura Precipitação Vento Pressão Humidade
    00:00 +28°C° 0 mm 2 m/s 757 mmHg 82%
    01:00 +28°C° 0 mm 2 m/s 756 mmHg 83%
    02:00 +28°C° 0 mm 2 m/s 756 mmHg 84%
    03:00 +28°C° 0 mm 2 m/s 755 mmHg 85%
    04:00 +28°C° 0 mm 2 m/s 756 mmHg 85%
    05:00 +28°C° 0 mm 2 m/s 756 mmHg 85%
    06:00 +28°C° 0 mm 2 m/s 757 mmHg 86%
    07:00 +30°C° 0 mm 2 m/s 757 mmHg 78%
    08:00 +31°C° 0 mm 2 m/s 757 mmHg 70%
    09:00 +34°C° 0 mm 3 m/s 758 mmHg 62%
    10:00 +35°C° 0 mm 3 m/s 757 mmHg 58%
    11:00 +36°C° 0 mm 3 m/s 756 mmHg 54%
    12:00 +37°C° 0 mm 3 m/s 756 mmHg 50%
    13:00 +37°C° 0 mm 4 m/s 755 mmHg 53%
    14:00 +36°C° 0 mm 4 m/s 755 mmHg 55%
    15:00 +36°C° 0 mm 4 m/s 754 mmHg 57%
    16:00 +34°C° 0 mm 4 m/s 755 mmHg 63%
    17:00 +33°C° 0 mm 4 m/s 755 mmHg 69%
    18:00 +32°C° 0 mm 4 m/s 756 mmHg 74%
    19:00 +30°C° 0.2 mm 4 m/s 756 mmHg 77%
    20:00 +30°C° 0.2 mm 3 m/s 757 mmHg 79%
    21:00 +29°C° 0.2 mm 3 m/s 757 mmHg 82%
    22:00 +29°C° 0.1 mm 3 m/s 757 mmHg 82%
    23:00 +29°C° 0.1 mm 3 m/s 757 mmHg 83%

    27 Outubro, Sábado

    Tempo Temperatura Precipitação Vento Pressão Humidade
    00:00 +29°C° 0.1 mm 3 m/s 756 mmHg 84%
    01:00 +29°C° 0.3 mm 3 m/s 756 mmHg 85%
    02:00 +29°C° 0.3 mm 3 m/s 756 mmHg 86%
    03:00 +29°C° 0.3 mm 3 m/s 755 mmHg 87%
    04:00 +29°C° 0.1 mm 3 m/s 756 mmHg 87%
    05:00 +29°C° 0.1 mm 3 m/s 756 mmHg 87%
    06:00 +29°C° 0.1 mm 3 m/s 757 mmHg 87%
    07:00 +30°C° 0 mm 3 m/s 757 mmHg 80%
    08:00 +31°C° 0 mm 3 m/s 758 mmHg 73%
    09:00 +34°C° 0 mm 3 m/s 758 mmHg 66%
    10:00 +34°C° 0 mm 3 m/s 757 mmHg 63%
    11:00 +35°C° 0 mm 3 m/s 757 mmHg 61%
    12:00 +35°C° 0 mm 3 m/s 756 mmHg 58%
    13:00 +35°C° 0 mm 3 m/s 756 mmHg 59%
    14:00 +35°C° 0 mm 4 m/s 755 mmHg 60%
    15:00 +35°C° 0 mm 4 m/s 754 mmHg 60%
    16:00 +34°C° 0 mm 4 m/s 755 mmHg 66%
    17:00 +33°C° 0 mm 4 m/s 755 mmHg 71%
    18:00 +30°C° 0 mm 4 m/s 756 mmHg 76%
    19:00 +30°C° 1.4 mm 3 m/s 756 mmHg 79%
    20:00 +29°C° 1.4 mm 3 m/s 757 mmHg 82%
    21:00 +29°C° 1.4 mm 3 m/s 757 mmHg 84%
    22:00 +29°C° 0.5 mm 3 m/s 757 mmHg 85%
    23:00 +29°C° 0.5 mm 3 m/s 757 mmHg 85%

    28 Outubro, Domingo

    Tempo Temperatura Precipitação Vento Pressão Humidade
    00:00 +28°C° 0.5 mm 3 m/s 757 mmHg 85%
    01:00 +28°C° 0 mm 3 m/s 756 mmHg 86%
    02:00 +28°C° 0 mm 3 m/s 756 mmHg 86%
    03:00 +28°C° 0 mm 3 m/s 756 mmHg 86%
    04:00 +28°C° 0.2 mm 2 m/s 756 mmHg 86%
    05:00 +28°C° 0.2 mm 2 m/s 757 mmHg 86%
    06:00 +28°C° 0.2 mm 2 m/s 757 mmHg 86%
    07:00 +29°C° 1 mm 2 m/s 758 mmHg 82%
    08:00 +30°C° 1 mm 2 m/s 758 mmHg 77%
    09:00 +31°C° 1 mm 2 m/s 758 mmHg 72%
    10:00 +34°C° 0.1 mm 3 m/s 758 mmHg 66%
    11:00 +35°C° 0.1 mm 3 m/s 757 mmHg 60%
    12:00 +36°C° 0.1 mm 3 m/s 756 mmHg 54%
    13:00 +36°C° 0 mm 3 m/s 756 mmHg 55%
    14:00 +35°C° 0 mm 4 m/s 755 mmHg 56%
    15:00 +35°C° 0 mm 4 m/s 755 mmHg 58%
    16:00 +34°C° 0 mm 4 m/s 755 mmHg 63%
    17:00 +31°C° 0 mm 3 m/s 756 mmHg 69%
    18:00 +30°C° 0 mm 3 m/s 756 mmHg 74%
    19:00 +30°C° 0.2 mm 3 m/s 757 mmHg 76%
    20:00 +29°C° 0.2 mm 3 m/s 757 mmHg 79%
    21:00 +29°C° 0.2 mm 3 m/s 757 mmHg 81%
    22:00 +29°C° 0 mm 3 m/s 757 mmHg 82%
    23:00 +29°C° 0 mm 3 m/s 757 mmHg 83%
    Mostrar mais